Temp
14 13 13 12 14 14 12 12 12 14 13 13 13 13 13 13 13 13 13 13 13 13 12 12 10 10 9 9 9 8 8 7
14 13 13 13 13 13 12 12 14 14 13 13 13 13 13 13 13 14 13 13 13 13 13 13 10 10 10 11 11 10 9 9
14 13 12 14 14 13 12 12 14 13 13 12 12 13 13 13 13 13 13 13 13 13 12 11 10 9 11 10 10 10 10 9
13 13 13 13 13 14 12 13 14 13 12 13 13 13 13 13 13 13 13 14 13 13 12 9 9 9 11 10 10 11 10 8
13 13 13 13 14 12 12 12 13 13 14 13 13 13 12 11 13 13 13 13 13 13 12 12 11 9 10 10 10 9 9 8
12 13 13 13 12 12 12 12 13 14 13 13 13 12 12 13 14 13 13 13 13 13 12 11 10 9 9 9 9 9 9 9
12 12 12 12 13 12 12 13 13 13 13 13 12 13 13 13 13 13 13 13 12 12 12 11 10 10 10 9 9 9 9 9
12 12 12 12 12 12 11 13 12 13 13 13 12 12 13 13 13 12 12 12 12 12 11 11 11 10 10 10 9 9 9 9
12 12 12 12 12 13 13 12 11 12 13 13 12 12 12 12 12 12 12 12 12 12 12 11 11 10 11 10 10 10 10 9
13 12 12 12 12 12 13 12 10 12 13 12 12 12 12 12 12 12 12 12 12 12 12 11 11 11 11 11 10 10 10 9
13 12 11 11 12 12 13 12 12 12 12 12 12 12 12 12 12 13 12 12 12 12 11 11 11 11 11 10 10 10 10 10
14 12 12 11 11 12 12 12 10 12 12 12 12 12 12 12 12 12 12 12 12 12 11 11 11 11 10 10 10 9 9 9
15 13 12 11 12 12 12 12 11 12 12 12 12 12 11 11 12 12 11 12 11 11 11 10 11 10 10 9 9 9 9 9
15 13 11 10 11 12 12 11 10 11 10 12 12 11 11 11 11 11 11 11 11 11 10 10 10 10 9 9 9 9 8 8
16 14 11 11 11 11 12 11 10 10 10 11 11 11 11 11 11 11 11 11 11 10 10 9 9 9 9 9 8 8 8 8
16 14 11 11 10 11 11 11 10 9 10 11 11 11 11 11 11 10 10 10 10 10 9 9 9 9 9 8 8 8 8 8
15 14 13 10 10 11 11 10 9 9 11 11 11 11 10 10 10 10 10 10 10 9 9 9 9 8 9 8 8 8 8 7
14 13 14 12 10 10 10 10 9 9 10 10 9 10 10 10 10 9 9 10 9 9 9 8 8 8 8 8 8 7 7 7
12 13 13 12 11 10 9 10 9 9 9 8 9 10 10 10 10 9 9 9 9 9 8 8 8 8 8 7 7 7 7 6
Height
1500 1506 1511 1516 1519 1525 1531 1536 1541 1543 1548 1553 1556 1558 1561 1563 1564 1565 1566 1567 1570 1571 1573 1575 1578 1581 1582 1584 1587 1589 1592 1593
1497 1503 1506 1511 1518 1524 1529 1534 1537 1542 1546 1551 1554 1557 1559 1562 1563 1564 1565 1567 1568 1570 1572 1574 1577 1580 1581 1582 1584 1586 1589 1592
1491 1497 1500 1508 1512 1521 1528 1533 1535 1541 1546 1550 1553 1556 1557 1560 1562 1563 1564 1566 1567 1569 1572 1574 1577 1579 1579 1581 1584 1585 1589 1592
1485 1491 1497 1506 1508 1514 1523 1528 1533 1540 1545 1547 1550 1553 1556 1559 1560 1562 1564 1565 1567 1568 1570 1574 1576 1578 1579 1582 1584 1585 1589 1592
1482 1486 1493 1500 1504 1512 1520 1525 1531 1537 1542 1545 1549 1552 1554 1557 1559 1561 1563 1565 1566 1569 1571 1573 1576 1579 1579 1582 1585 1586 1589 1592
1475 1481 1489 1496 1502 1509 1517 1522 1528 1534 1539 1543 1548 1550 1552 1555 1557 1561 1562 1564 1566 1568 1570 1573 1575 1578 1578 1581 1583 1586 1588 1593
1472 1479 1486 1493 1500 1508 1511 1519 1526 1531 1535 1541 1545 1548 1551 1553 1556 1559 1561 1563 1565 1567 1569 1571 1573 1575 1577 1580 1583 1584 1587 1590
1466 1473 1479 1487 1494 1501 1508 1515 1522 1527 1532 1538 1542 1546 1550 1552 1554 1557 1559 1561 1564 1566 1567 1570 1571 1574 1576 1579 1581 1582 1584 1587
1460 1468 1474 1481 1489 1499 1504 1510 1518 1523 1529 1534 1539 1543 1546 1550 1552 1554 1558 1560 1562 1564 1566 1568 1570 1573 1574 1577 1579 1580 1581 1584
1456 1463 1469 1478 1486 1492 1499 1507 1515 1519 1525 1531 1536 1540 1543 1547 1549 1552 1555 1558 1560 1563 1564 1567 1569 1571 1573 1576 1578 1579 1580 1583
1453 1459 1465 1474 1481 1488 1497 1504 1509 1515 1521 1527 1532 1537 1541 1544 1546 1549 1554 1556 1558 1561 1563 1565 1568 1570 1573 1576 1578 1580 1580 1583
1446 1454 1463 1471 1477 1484 1493 1499 1505 1511 1517 1524 1528 1533 1537 1541 1544 1547 1551 1554 1556 1559 1562 1563 1566 1569 1572 1575 1578 1580 1581 1582
1440 1449 1458 1463 1470 1479 1486 1493 1500 1508 1514 1520 1525 1530 1534 1538 1541 1544 1548 1552 1554 1557 1560 1562 1564 1567 1571 1574 1577 1579 1582 1582
1438 1447 1452 1456 1464 1472 1480 1488 1496 1503 1509 1515 1521 1525 1530 1534 1537 1541 1546 1548 1552 1554 1559 1561 1563 1565 1568 1572 1576 1578 1581 1582
1431 1439 1445 1452 1458 1466 1473 1483 1491 1497 1504 1509 1515 1520 1525 1530 1534 1538 1543 1545 1548 1552 1557 1559 1562 1565 1567 1570 1574 1577 1580 1582
1429 1435 1440 1447 1453 1461 1469 1479 1486 1492 1498 1503 1509 1516 1521 1526 1530 1535 1539 1542 1545 1549 1554 1557 1560 1564 1566 1569 1572 1576 1578 1581
1429 1435 1441 1444 1448 1454 1463 1472 1478 1486 1492 1499 1505 1511 1517 1521 1525 1530 1534 1537 1541 1545 1550 1555 1558 1561 1563 1567 1570 1574 1577 1579
1428 1432 1439 1444 1448 1452 1459 1467 1474 1480 1486 1494 1499 1505 1510 1516 1520 1525 1529 1532 1536 1541 1546 1551 1555 1558 1561 1565 1568 1571 1575 1577
1428 1433 1437 1442 1447 1451 1458 1466 1471 1477 1484 1490 1494 1499 1506 1511 1515 1520 1524 1528 1532 1537 1542 1547 1551 1555 1558 1562 1565 1569 1572 1574
Wind_Speed
28 27 31 33 35 36 26 24 25 26 24 21 20 16 12 10 9 8 8 8 8 9 10 12 13 14 14 14 13 14 13 14
28 31 36 36 31 33 28 28 30 29 25 23 19 15 13 10 9 9 8 8 9 10 11 13 15 15 16 15 15 15 16 13
30 33 35 41 32 35 32 28 32 31 25 18 16 15 12 10 9 9 10 10 11 12 13 15 16 17 19 18 14 14 14 14
36 39 36 38 37 38 37 33 33 29 24 22 18 16 12 12 12 12 12 11 12 15 17 14 17 17 18 16 14 12 14 12
39 39 41 45 41 39 35 32 33 29 27 22 18 16 14 13 14 14 11 10 11 14 15 15 16 14 17 16 15 13 12 10
40 40 42 43 43 44 38 34 33 31 27 23 21 16 14 15 17 14 10 9 11 13 15 15 16 15 16 16 17 14 13 9
33 38 40 42 41 41 41 38 35 31 28 25 21 18 16 17 17 12 10 11 13 14 14 13 16 17 16 17 16 15 13 12
34 41 43 44 49 44 38 37 34 33 29 26 23 19 15 15 14 12 11 13 14 14 13 14 14 14 14 14 15 16 15 14
35 39 42 46 50 47 43 39 30 32 30 28 25 21 19 18 15 12 14 14 14 14 14 13 13 13 12 13 12 12 12 14
35 38 44 44 46 49 44 39 30 32 32 31 28 24 21 20 16 15 14 14 14 15 14 14 13 13 12 11 11 11 11 11
35 36 41 44 47 45 44 40 38 32 34 32 29 25 23 21 17 16 15 15 15 15 15 15 14 13 13 12 12 12 12 11
37 35 35 34 42 46 45 41 32 35 35 33 31 28 25 22 18 18 16 16 16 17 17 16 16 15 15 14 13 12 12 11
37 35 33 35 41 44 46 45 36 36 35 34 33 29 26 24 21 20 18 18 18 18 19 18 18 16 15 15 14 14 13 12
33 32 35 36 39 44 47 45 35 36 33 37 35 31 28 26 23 23 20 20 21 21 21 20 19 18 17 17 16 15 14 13
34 34 34 34 37 45 47 40 35 35 36 37 37 34 31 27 25 25 23 22 22 22 22 21 20 19 19 18 17 16 14 13
29 31 31 35 37 42 44 35 36 34 37 39 38 36 31 28 28 27 25 23 23 23 24 23 21 20 20 20 18 17 15 13
22 24 25 31 40 42 43 39 37 35 38 39 37 37 33 32 31 30 27 25 25 25 25 24 23 22 21 19 18 17 16 14
20 22 24 25 29 37 40 39 33 35 37 36 36 37 37 35 33 31 29 27 28 27 26 25 24 24 22 21 19 18 17 16
6 15 19 22 23 26 27 29 31 33 33 33 35 37 37 36 34 32 30 30 29 28 28 27 26 25 23 22 21 19 18 17
Wind_Direction
196 191 193 192 196 187 176 173 183 183 183 186 188 191 196 203 207 205 196 195 192 191 189 177 160 161 159 153 158 143 139 134
194 193 202 198 202 191 182 179 189 187 186 187 189 192 196 200 196 183 175 178 175 174 172 166 163 165 169 176 174 164 160 156
184 189 200 201 199 197 189 189 191 190 188 178 182 189 188 190 182 166 161 160 161 162 163 165 165 171 179 181 183 171 164 158
188 195 198 203 198 198 194 193 194 188 186 190 190 189 185 179 168 162 161 157 162 169 168 167 172 177 182 184 184 183 176 179
190 193 199 202 196 195 189 192 192 192 193 194 194 188 174 174 167 166 160 159 165 172 173 177 182 178 186 190 197 183 179 183
187 195 200 198 195 192 188 190 192 195 191 194 190 179 182 178 172 171 170 174 179 180 181 186 195 190 192 196 201 191 200 195
187 193 196 198 194 188 189 191 193 193 194 193 191 191 190 181 179 185 191 191 186 187 187 193 194 198 199 205 208 211 209 214
181 193 198 194 191 189 182 188 191 192 194 192 193 191 192 187 185 195 201 189 186 187 186 184 186 194 197 206 213 219 222 229
186 194 195 194 193 195 191 188 186 190 193 192 192 191 189 188 189 194 188 186 189 186 184 181 184 191 194 199 203 202 209 218
188 192 197 199 195 198 195 194 187 191 193 194 194 192 193 193 193 187 189 189 186 185 182 179 181 183 181 183 189 186 184 190
188 190 199 201 199 198 200 200 199 190 195 196 196 194 197 196 194 192 192 189 187 184 182 180 180 180 178 178 177 174 169 171
188 189 193 190 197 202 200 200 191 195 197 199 197 198 199 199 197 192 195 191 188 187 187 184 183 183 179 178 176 175 171 172
188 187 186 187 200 201 204 204 198 199 199 200 200 200 202 201 199 195 196 195 192 191 192 189 185 182 181 178 178 178 176 171
183 183 183 187 196 202 202 202 196 199 196 202 202 202 204 203 202 199 199 198 196 194 196 193 189 185 183 182 181 182 179 174
183 186 188 190 195 202 204 199 195 197 198 201 203 205 206 204 205 201 203 201 199 198 199 196 192 189 186 187 185 185 185 183
188 189 191 191 199 205 204 197 193 193 196 203 204 207 205 204 208 203 205 203 201 201 201 198 194 193 193 193 190 190 190 188
190 191 195 197 205 211 207 196 193 193 199 203 206 208 206 206 207 204 206 204 202 203 203 203 200 197 199 197 195 194 192 193
188 196 199 201 200 205 208 202 194 198 200 201 204 206 206 207 206 205 207 205 205 205 204 205 204 205 199 199 197 198 198 199
154 195 198 199 197 199 195 192 195 197 198 200 205 206 207 206 206 206 207 207 206 206 206 207 207 209 203 202 200 202 202 205